Time,TemperatureF,DewpointF,PressureIn,WindDirection,WindDirectionDegrees,WindSpeedMPH,WindSpeedGustMPH,Humidity,HourlyPrecipIn,Conditions,Clouds,dailyrainin,SoftwareType,DateUTC
2013-03-17 00:03:00,40.0,36.0,29.93,ENE,74,8.0,17.0,85,0.00,,,0.00,weatherlink.com 1.10,2013-03-17 05:03:00,
2013-03-17 00:18:00,39.7,36.0,29.92,ENE,74,11.0,16.0,86,0.00,,,0.00,weatherlink.com 1.10,2013-03-17 05:18:00,
2013-03-17 00:33:00,39.4,36.0,29.93,ENE,71,7.0,17.0,88,0.00,,,0.00,weatherlink.com 1.10,2013-03-17 05:33:00,
2013-03-17 00:48:00,38.8,36.0,29.93,NE,51,8.0,14.0,90,0.00,,,0.00,weatherlink.com 1.10,2013-03-17 05:48:00,
2013-03-17 01:03:00,38.1,36.0,29.93,ENE,67,11.0,17.0,92,0.02,,,0.02,weatherlink.com 1.10,2013-03-17 06:03:00,
2013-03-17 01:18:00,37.8,36.0,29.93,NNE,19,8.0,14.0,93,0.09,,,0.09,weatherlink.com 1.10,2013-03-17 06:18:00,
2013-03-17 01:33:00,37.4,36.0,29.95,NE,48,4.0,14.0,94,0.10,,,0.10,weatherlink.com 1.10,2013-03-17 06:33:00,
2013-03-17 01:48:00,37.2,36.0,29.95,NE,40,9.0,19.0,94,0.13,,,0.13,weatherlink.com 1.10,2013-03-17 06:48:00,
2013-03-17 02:03:00,37.2,36.0,29.94,NE,44,8.0,15.0,94,0.15,,,0.17,weatherlink.com 1.10,2013-03-17 07:03:00,
2013-03-17 02:18:00,36.9,35.0,29.93,ENE,65,12.0,18.0,94,0.11,,,0.20,weatherlink.com 1.10,2013-03-17 07:18:00,
2013-03-17 02:33:00,36.8,35.0,29.95,NE,49,6.0,23.0,94,0.10,,,0.20,weatherlink.com 1.10,2013-03-17 07:33:00,
2013-03-17 02:48:00,36.6,35.0,29.93,NE,53,12.0,23.0,94,0.07,,,0.20,weatherlink.com 1.10,2013-03-17 07:48:00,
2013-03-17 03:03:00,36.4,35.0,29.93,East,88,13.0,21.0,94,0.03,,,0.21,weatherlink.com 1.10,2013-03-17 08:03:00,
2013-03-17 03:18:00,36.4,35.0,29.92,ENE,66,14.0,22.0,94,0.02,,,0.01,weatherlink.com 1.10,2013-03-17 08:18:00,
2013-03-17 03:33:00,36.2,35.0,29.94,ENE,57,15.0,21.0,94,0.05,,,0.04,weatherlink.com 1.10,2013-03-17 08:33:00,
2013-03-17 03:48:00,36.1,35.0,29.91,East,88,17.0,29.0,94,0.07,,,0.06,weatherlink.com 1.10,2013-03-17 08:48:00,
2013-03-17 04:03:00,36.0,35.0,29.96,NNE,13,12.0,23.0,94,0.08,,,0.08,weatherlink.com 1.10,2013-03-17 09:03:00,
2013-03-17 04:18:00,35.9,34.0,29.94,NNE,20,5.0,15.0,94,0.10,,,0.11,weatherlink.com 1.10,2013-03-17 09:18:00,
2013-03-17 04:33:00,35.6,34.0,29.94,NE,44,9.0,16.0,95,0.09,,,0.13,weatherlink.com 1.10,2013-03-17 09:33:00,
2013-03-17 04:48:00,35.4,34.0,29.93,ENE,59,11.0,16.0,95,0.09,,,0.15,weatherlink.com 1.10,2013-03-17 09:48:00,
2013-03-17 05:03:00,35.3,34.0,29.95,ENE,70,10.0,20.0,95,0.09,,,0.17,weatherlink.com 1.10,2013-03-17 10:03:00,
2013-03-17 05:18:00,35.2,34.0,29.92,ENE,75,16.0,22.0,94,0.08,,,0.19,weatherlink.com 1.10,2013-03-17 10:18:00,
2013-03-17 05:34:00,35.2,34.0,29.94,East,96,19.0,20.0,94,0.08,,,0.21,weatherlink.com 1.10,2013-03-17 10:34:00,
2013-03-17 05:49:00,35.1,34.0,29.95,ENE,72,8.0,22.0,94,0.08,,,0.23,weatherlink.com 1.10,2013-03-17 10:49:00,
2013-03-17 06:04:00,35.2,34.0,29.97,NE,50,6.0,16.0,95,0.08,,,0.25,weatherlink.com 1.10,2013-03-17 11:04:00,
2013-03-17 06:19:00,35.1,34.0,29.98,ENE,72,13.0,18.0,95,0.07,,,0.26,weatherlink.com 1.10,2013-03-17 11:19:00,
2013-03-17 06:34:00,34.9,34.0,29.98,ENE,57,10.0,19.0,95,0.08,,,0.29,weatherlink.com 1.10,2013-03-17 11:34:00,
2013-03-17 06:49:00,34.9,34.0,29.97,ENE,77,10.0,17.0,95,0.08,,,0.31,weatherlink.com 1.10,2013-03-17 11:49:00,
2013-03-17 07:04:00,35.0,34.0,29.97,ENE,58,10.0,18.0,95,0.07,,,0.32,weatherlink.com 1.10,2013-03-17 12:04:00,
2013-03-17 07:19:00,34.8,34.0,30.01,NE,50,4.0,17.0,95,0.07,,,0.34,weatherlink.com 1.10,2013-03-17 12:19:00,
2013-03-17 07:34:00,34.9,34.0,29.99,ENE,66,8.0,17.0,95,0.07,,,0.36,weatherlink.com 1.10,2013-03-17 12:34:00,
2013-03-17 07:49:00,34.7,34.0,29.96,ENE,61,8.0,18.0,95,0.07,,,0.38,weatherlink.com 1.10,2013-03-17 12:49:00,
2013-03-17 08:04:00,34.7,34.0,29.98,East,88,13.0,17.0,95,0.08,,,0.40,weatherlink.com 1.10,2013-03-17 13:04:00,
2013-03-17 08:19:00,34.6,33.0,29.96,East,87,16.0,19.0,95,0.08,,,0.42,weatherlink.com 1.10,2013-03-17 13:19:00,
2013-03-17 08:34:00,34.4,33.0,29.95,East,84,17.0,23.0,94,0.08,,,0.44,weatherlink.com 1.10,2013-03-17 13:34:00,
2013-03-17 08:49:00,34.3,33.0,29.95,ENE,78,14.0,21.0,94,0.07,,,0.45,weatherlink.com 1.10,2013-03-17 13:49:00,
2013-03-17 09:04:00,34.4,33.0,29.96,ENE,68,10.0,19.0,94,0.07,,,0.47,weatherlink.com 1.10,2013-03-17 14:04:00,
2013-03-17 09:19:00,34.4,33.0,29.96,East,80,8.0,21.0,94,0.06,,,0.48,weatherlink.com 1.10,2013-03-17 14:19:00,
2013-03-17 09:34:00,34.5,33.0,29.97,East,80,13.0,21.0,94,0.05,,,0.49,weatherlink.com 1.10,2013-03-17 14:34:00,
2013-03-17 09:49:00,34.6,33.0,29.97,East,81,10.0,16.0,94,0.06,,,0.51,weatherlink.com 1.10,2013-03-17 14:49:00,
2013-03-17 10:04:00,34.8,33.0,29.97,East,84,9.0,22.0,94,0.05,,,0.52,weatherlink.com 1.10,2013-03-17 15:04:00,
2013-03-17 10:19:00,34.8,33.0,29.96,ENE,76,12.0,17.0,94,0.05,,,0.53,weatherlink.com 1.10,2013-03-17 15:19:00,
2013-03-17 10:34:00,34.7,33.0,29.96,ENE,74,12.0,17.0,94,0.05,,,0.54,weatherlink.com 1.10,2013-03-17 15:34:00,
2013-03-17 10:49:00,35.0,34.0,29.96,East,86,10.0,14.0,94,0.04,,,0.55,weatherlink.com 1.10,2013-03-17 15:49:00,
2013-03-17 11:04:00,35.1,34.0,29.96,ENE,74,9.0,15.0,94,0.04,,,0.56,weatherlink.com 1.10,2013-03-17 16:04:00,
2013-03-17 11:19:00,35.4,34.0,29.95,ENE,78,7.0,14.0,94,0.04,,,0.57,weatherlink.com 1.10,2013-03-17 16:19:00,
2013-03-17 11:34:00,35.6,34.0,29.95,East,79,13.0,16.0,94,0.03,,,0.57,weatherlink.com 1.10,2013-03-17 16:34:00,
2013-03-17 11:49:00,35.4,34.0,29.95,East,85,8.0,18.0,94,0.03,,,0.58,weatherlink.com 1.10,2013-03-17 16:49:00,
2013-03-17 12:04:00,35.7,34.0,29.95,ESE,108,8.0,14.0,95,0.03,,,0.59,weatherlink.com 1.10,2013-03-17 17:04:00,
2013-03-17 12:19:00,35.8,35.0,29.94,East,83,6.0,18.0,95,0.02,,,0.59,weatherlink.com 1.10,2013-03-17 17:19:00,
2013-03-17 12:34:00,35.7,34.0,29.94,East,98,9.0,15.0,95,0.03,,,0.60,weatherlink.com 1.10,2013-03-17 17:34:00,
2013-03-17 12:49:00,36.1,35.0,29.92,ENE,73,12.0,15.0,95,0.03,,,0.61,weatherlink.com 1.10,2013-03-17 17:49:00,
2013-03-17 13:04:00,36.5,36.0,29.91,East,79,13.0,17.0,96,0.03,,,0.62,weatherlink.com 1.10,2013-03-17 18:04:00,
2013-03-17 13:19:00,36.4,35.0,29.91,ESE,103,8.0,14.0,95,0.03,,,0.62,weatherlink.com 1.10,2013-03-17 18:19:00,
2013-03-17 13:34:00,36.7,35.0,29.89,ESE,105,10.0,16.0,95,0.03,,,0.63,weatherlink.com 1.10,2013-03-17 18:34:00,
2013-03-17 13:49:00,37.7,37.0,29.87,East,92,10.0,15.0,96,0.02,,,0.63,weatherlink.com 1.10,2013-03-17 18:49:00,
2013-03-17 14:04:00,37.7,37.0,29.86,East,98,9.0,18.0,96,0.02,,,0.64,weatherlink.com 1.10,2013-03-17 19:04:00,
2013-03-17 14:19:00,37.5,36.0,29.85,ENE,71,9.0,18.0,95,0.03,,,0.65,weatherlink.com 1.10,2013-03-17 19:19:00,
2013-03-17 14:34:00,37.5,37.0,29.85,East,87,10.0,14.0,96,0.02,,,0.65,weatherlink.com 1.10,2013-03-17 19:34:00,
2013-03-17 14:49:00,38.1,37.0,29.83,East,93,10.0,16.0,95,0.03,,,0.66,weatherlink.com 1.10,2013-03-17 19:49:00,
2013-03-17 15:04:00,38.0,37.0,29.83,ESE,107,12.0,17.0,95,0.02,,,0.66,weatherlink.com 1.10,2013-03-17 20:04:00,
2013-03-17 15:19:00,38.0,37.0,29.83,East,84,8.0,14.0,95,0.02,,,0.67,weatherlink.com 1.10,2013-03-17 20:19:00,
2013-03-17 15:34:00,37.9,37.0,29.83,East,82,8.0,13.0,95,0.02,,,0.67,weatherlink.com 1.10,2013-03-17 20:34:00,
2013-03-17 15:49:00,37.9,37.0,29.83,ENE,75,15.0,15.0,96,0.02,,,0.68,weatherlink.com 1.10,2013-03-17 20:49:00,
2013-03-17 16:04:00,37.8,37.0,29.81,East,83,9.0,15.0,96,0.02,,,0.68,weatherlink.com 1.10,2013-03-17 21:04:00,
2013-03-17 16:19:00,37.7,37.0,29.79,ENE,69,11.0,19.0,96,0.02,,,0.69,weatherlink.com 1.10,2013-03-17 21:19:00,
2013-03-17 16:34:00,37.6,37.0,29.80,East,82,8.0,12.0,96,0.02,,,0.69,weatherlink.com 1.10,2013-03-17 21:34:00,
2013-03-17 16:49:00,37.5,37.0,29.78,East,86,11.0,16.0,96,0.02,,,0.70,weatherlink.com 1.10,2013-03-17 21:49:00,
2013-03-17 17:04:00,37.5,37.0,29.78,ENE,76,7.0,13.0,96,0.02,,,0.71,weatherlink.com 1.10,2013-03-17 22:04:00,
2013-03-17 17:19:00,37.6,37.0,29.77,East,79,9.0,15.0,96,0.02,,,0.71,weatherlink.com 1.10,2013-03-17 22:19:00,
2013-03-17 17:34:00,37.8,37.0,29.80,North,5,4.0,11.0,97,0.03,,,0.72,weatherlink.com 1.10,2013-03-17 22:34:00,
2013-03-17 17:49:00,37.4,36.0,29.78,ENE,71,10.0,13.0,96,0.03,,,0.73,weatherlink.com 1.10,2013-03-17 22:49:00,
2013-03-17 18:04:00,37.3,36.0,29.80,NNE,30,8.0,11.0,96,0.02,,,0.73,weatherlink.com 1.10,2013-03-17 23:04:00,
2013-03-17 18:19:00,37.1,36.0,29.79,ENE,76,9.0,9.0,97,0.03,,,0.74,weatherlink.com 1.10,2013-03-17 23:19:00,
2013-03-17 18:34:00,37.0,36.0,29.78,East,84,11.0,13.0,96,0.03,,,0.75,weatherlink.com 1.10,2013-03-17 23:34:00,
2013-03-17 18:49:00,37.1,36.0,29.77,ENE,72,7.0,13.0,97,0.03,,,0.76,weatherlink.com 1.10,2013-03-17 23:49:00,
2013-03-17 19:04:00,37.1,36.0,29.77,ENE,72,8.0,13.0,97,0.04,,,0.77,weatherlink.com 1.10,2013-03-18 00:04:00,
2013-03-17 19:19:00,36.7,36.0,29.78,ENE,78,5.0,11.0,97,0.05,,,0.79,weatherlink.com 1.10,2013-03-18 00:19:00,
2013-03-17 19:34:00,36.5,36.0,29.78,East,88,7.0,12.0,97,0.05,,,0.80,weatherlink.com 1.10,2013-03-18 00:34:00,
2013-03-17 19:49:00,36.7,36.0,29.76,East,80,10.0,11.0,97,0.05,,,0.81,weatherlink.com 1.10,2013-03-18 00:49:00,
2013-03-17 20:04:00,36.8,36.0,29.77,East,91,7.0,12.0,97,0.05,,,0.82,weatherlink.com 1.10,2013-03-18 01:04:00,
2013-03-17 20:19:00,36.8,36.0,29.76,East,91,8.0,16.0,97,0.04,,,0.83,weatherlink.com 1.10,2013-03-18 01:19:00,
2013-03-17 20:34:00,36.8,36.0,29.76,East,99,8.0,14.0,97,0.04,,,0.84,weatherlink.com 1.10,2013-03-18 01:34:00,
2013-03-17 20:49:00,36.8,36.0,29.76,East,98,9.0,12.0,97,0.04,,,0.85,weatherlink.com 1.10,2013-03-18 01:49:00,
2013-03-17 21:04:00,36.9,36.0,29.77,East,84,7.0,11.0,97,0.05,,,0.87,weatherlink.com 1.10,2013-03-18 02:04:00,
2013-03-17 21:19:00,36.9,36.0,29.77,East,85,5.0,9.0,97,0.04,,,0.87,weatherlink.com 1.10,2013-03-18 02:19:00,
2013-03-17 21:34:00,37.0,36.0,29.78,East,94,5.0,8.0,97,0.05,,,0.89,weatherlink.com 1.10,2013-03-18 02:34:00,
2013-03-17 21:49:00,37.0,36.0,29.77,East,96,7.0,8.0,97,0.05,,,0.90,weatherlink.com 1.10,2013-03-18 02:49:00,
2013-03-17 22:04:00,36.9,36.0,29.77,East,84,6.0,8.0,97,0.04,,,0.91,weatherlink.com 1.10,2013-03-18 03:04:00,
2013-03-17 22:19:00,36.9,36.0,29.77,East,88,6.0,10.0,97,0.03,,,0.91,weatherlink.com 1.10,2013-03-18 03:19:00,
2013-03-17 22:35:00,36.9,36.0,29.77,ENE,78,4.0,8.0,97,0.04,,,0.93,weatherlink.com 1.10,2013-03-18 03:35:00,
2013-03-17 22:50:00,36.7,36.0,29.75,ESE,111,7.0,10.0,97,0.03,,,0.93,weatherlink.com 1.10,2013-03-18 03:50:00,
2013-03-17 23:05:00,36.9,36.0,29.76,ESE,109,4.0,10.0,97,0.03,,,0.94,weatherlink.com 1.10,2013-03-18 04:05:00,
2013-03-17 23:20:00,37.1,37.0,29.76,ESE,107,3.0,7.0,98,0.03,,,0.95,weatherlink.com 1.10,2013-03-18 04:20:00,
2013-03-17 23:35:00,37.4,37.0,29.75,East,96,3.0,7.0,97,0.03,,,0.96,weatherlink.com 1.10,2013-03-18 04:35:00,
2013-03-17 23:50:00,37.9,37.0,29.76,SE,139,3.0,8.0,98,0.04,,,0.97,weatherlink.com 1.10,2013-03-18 04:50:00,